Location: Atherton
(17.2661°S, 145.4859°E)
Time: 18:16:15
(UTC+10:00)

ACS3 Solar Sail - Pass Details

Date: 23 May 2025
Orbit: 920 x 1019 km, 97.5° (Epoch: 20 June)

Event Time Altitude Azimuth Distance (km) Brightness Sun altitude
Rises 18:14:25 0° 179° (S) 3,773 4.7 -5.9°
Reaches altitude 10° 18:17:01 10° 184° (S) 2,822 4.1 -6.5°
Maximum altitude 18:23:06 48° 256° (WSW) 1,314 3.0 -7.9°
Drops below altitude 10° 18:29:09 10° 328° (NNW) 2,794 5.0 -9.2°
Sets 18:31:43 0° 334° (NNW) 3,732 5.6 -9.8°
